Location: Newark
(30.1000°N, 109.4667°E)
Time: 01:40:05
(UTC+00:00)

SR - Pass Details

Date: 19 February 2020
Orbit: 578 x 878 km, 66.7° (Epoch: 08 April)

Event Time Altitude Azimuth Distance (km) Brightness Sun altitude
Rises 06:51:08 0° 161° (SSE) 3,382 ? 40.1°
Reaches altitude 10° 06:54:31 10° 140° (SE) 2,486 ? 39.6°
Maximum altitude 06:57:56 16° 104° (ESE) 2,102 ? 39.2°
Drops below altitude 10° 07:01:24 10° 67° (ENE) 2,526 ? 38.7°
Sets 07:04:51 0° 48° (NE) 3,465 ? 38.2°
